sat.trackr.live / text

‹ back to catalog

HULIANWANG DIGUI-104

NORAD 66420 · 2025-258J

PAYLOAD ACTIVE UNKNOWN

§ Identity

Operator
Country
PRC
Launch date
2025-11-10
Launch site
WSC
Launch vehicle
Mass (kg)
RCS (m²)

External: N2YO · Heavens-Above · Gunter

§ Orbital elements

Epoch: 2026-09-20T10:11:02.181120Z

Period
108.33 min
Inclination
50.0034°
Eccentricity
0.0000040
Mean motion
13.29329645 rev/d
Perigee alt
1,149.3 km
Apogee alt
1,149.3 km
Semi-major
7,527.4 km
B*
8.5579e-5
RAAN
313.7210°
Arg perigee
47.7897°
Mean anomaly
312.2979°
Rev number
4,239

§ Raw data

HULIANWANG DIGUI-1041 66420U 25258J   26263.42433080 -.00000084  00000+0  85579-4 0  99932 66420  50.0034 313.7210 0000040  47.7897 312.2979 13.29329645 42390

JSON: /api/v1/satellites/66420 · /tle

For live sub-satellite position, see the globe view (requires WebGL).

§ Visibility from observer

Set your observer location to see the next 7 days of passes ≥ 10°. The values pass through the URL so the page stays shareable.

No JS? Fill the form by hand. The geolocation button needs JavaScript.